Regional Weather Roundup
Issued by NWS

Home | Current Version | Previous Version | Graphics & Text | Print | Product List | Glossary On
Versions: 1 2 3 4 5 6 7 8 9 10 11 12 13 14 15 16 17 18 19 20 21 22 23 24 25 26 27 28 29 30 31 32 33 34 35 36 37 38 39 40 41 42 43 44 45 46 47 48 49 50
443
ASUS45 KSLC 201610
RWRUT

UTAH REGIONAL WEATHER ROUNDUP
NATIONAL WEATHER SERVICE SALT LAKE CITY UT
900 AM MST MON FEB 20 2017

UTZ001>011-023>025-201700-

NORTHERN UTAH

CITY           SKY/WX    TMP DP  RH WIND       PRES   REMARKS
BRIGHAM CITY     N/A     47  34  60 S20       29.99S
HILL AFB       CLOUDY    46  33  61 S23       30.00S
LOGAN          CLOUDY    48  34  58 S16       29.97F
OGDEN          CLOUDY    46  34  62 S24       29.99F
SALT LAKE CITY PTSUNNY   48  33  56 S20G26    30.00S
TOOELE VALLEY  MOSUNNY   48  34  57 S26G38    29.99S
WENDOVER       MOSUNNY   43  34  70 NE9       30.00R
HEBER CITY     PTSUNNY   45  32  61 S3        30.07R
WEST JORDAN    PTSUNNY   48  41  78 SE23G29   30.04S

$$

UTZ011>015-024>027-201700-

CENTRAL/NORTHEAST UTAH

CITY           SKY/WX    TMP DP  RH WIND       PRES   REMARKS
PROVO AIRPORT  PTSUNNY   43  35  73 SE8       30.10F
MOAB/CANYONLAN CLOUDY    39  39 100 CALM      30.13S
DELTA          CLOUDY    43  32  65 S16       30.09S
PRICE          FOG       34  34 100 CALM      30.16R VSB 1/4
RICHFIELD      SUNNY     37  32  81 CALM      30.15R
ROOSEVELT      CLOUDY    36  32  87 CALM      30.16R
VERNAL         CLOUDY    33  30  88 E3        30.14R

$$

UTZ013>016-019>022-027-201700-

SOUTHERN UTAH

CITY           SKY/WX    TMP DP  RH WIND       PRES   REMARKS
BRYCE CANYON   MOSUNNY   28  26  92 NE5       30.19R WCI  23
CEDAR CITY     CLOUDY    40  38  93 SW10      30.16R WCI  33
MILFORD        CLOUDY    43  36  76 SW15      30.13R
ST GEORGE      CLOUDY    47  45  93 CALM      30.19R
HANKSVILLE     CLOUDY    32  32 100 CALM      30.20R VSB<1/4
KANAB          PTSUNNY   45  39  81 SW6       30.25R
BLANDING       MOSUNNY   38  35  90 E5        30.28R WCI  34

$$

REGIONAL REPORTS     COLORADO/ARIZONA

CITY           SKY/WX    TMP DP  RH WIND       PRES   REMARKS
CRAIG, CO      PTSUNNY   27  25  92 CALM      30.15R
GRAND JUNCTION CLOUDY    42  39  89 SE12      30.16R
RIFLE, CO      PTSUNNY   41  32  70 CALM      30.19R
MONTROSE, CO   MOSUNNY   38  31  76 SE7       30.23R WCI  33
CORTEZ, CO     SUNNY     39  35  86 NE8       30.22R WCI  33
COLORADO CITY  CLOUDY    43  43 100 CALM      30.23R
PAGE, AZ       MOSUNNY   44  32  62 W5        30.19R
GRAND CANYON   CLOUDY    36  34  92 S6        30.24R WCI  31
KINGMAN, AZ    CLOUDY    48  41  76 SE3       30.23R
FLAGSTAFF, AZ  CLOUDY    35  31  85 W5        30.25R WCI  31

$$

REGIONAL REPORTS    NEVADA/IDAHO/WYOMING

CITY           SKY/WX    TMP DP  RH WIND       PRES   REMARKS
LAS VEGAS, NV  PTSUNNY   56  44  64 S8        30.11R
ELY, NY        CLOUDY    39  33  79 S17       30.09R WCI  30
ELKO, NV       CLOUDY    44  32  62 S20G28    29.94R
POCATELLO, ID  CLOUDY    44  34  67 S30G37    29.88R
BURLEY, ID     CLOUDY    48  33  56 S24G38    29.87R
FORT BRIDGER,    N/A     33  25  71 CALM      30.06R
EVANSTON, WY   CLOUDY    29  24  82 S12       30.02R WCI  19
ROCK SPRINGS,  SUNNY     32  26  78 E5        30.04R WCI  27
KEMMERER, WY     N/A     32  28  86 S3        30.02S

$$




USA.gov is the U.S. government's official web portal to all federal, state and local government web resources and services.